CANX-6

Satellite information

Favourite Embed

Satellite Type and Status

PAYLOADIN ORBIT

Key statistics

Satellite CANX-6 at a glance.

Uptime

6341

Days in orbit

Revolutions

≈ 15.0

Per day

Orbit

SSO

Sun Synchronous Orbit

Inclination

97.8

Latest

Satellite identification and parameters

Extended collection of information and parameters for CANX-6.

Object identification

Identified? True

Debris? False

Object name: CANX-6

International designator: 2008-021B

Object number (NORAD): 32784

Object ID (CCSDS): 32784

Country: CANADA (CA)

Current information (Y/N): Y

RCS size: MEDIUM

Orbital parameters

Period: 95.989 minutes

Inclination: 97.8482 deg

SMA: 6944.487 km

Apoapsis: 573.97 km

Periapsis: 558.735 km

RAAN: 218.4843 deg

Eccentricy: 0.00109687

Argument of periapsis: 353.7675 deg

Mean anomaly: 6.341 deg

Mean motion: 15.00176867 rev/day

Mean motion (dot): 0.00006684 rev/day2

B* drag term: 0.00053907851 1/REarth

Two-line elements (TLE)

Creation date: Sept. 6, 2025, 2:09 a.m.

Reference frame: TEME

Reference center: EARTH

Epoch: Sept. 5, 2025, 8:47 p.m. UTC

TLE line 0: 0 CANX-6

TLE line 1: 1 32784U 08021B 25248.86640998 .00006684 00000-0 53908-3 0 9998

TLE line 2: 2 32784 97.8482 218.4843 0010969 353.7675 6.3410 15.00176867941453

Live tracking on map

Real-time ground track for satellite CANX-6.

In-orbit conjunctions

There are no conjunctions computed for CANX-6, at the moment. Check back to stay up to date, as we update our databases every day.

Go to all conjunctions

Associated space launch

Indian Earth observation satellite. Launched alongside 9 nanosatellites.

CANX-6 was lifted into orbit during the mission ‘PSLV | Cartosat 2A’, on board a PSLV space rocket.

The launch took place on April 28, 2008, 3:53 a.m. from Satish Dhawan Space Centre Second Launch Pad.

For more information about the launch, click the button.

Launch to space PSLV | Cartosat 2A
PSLV | Cartosat 2A

Agency: N/A

Status: Launch Successful

Launch date: April 28, 2008, 3:53 a.m. UTC

Rocket: PSLV

Launch pad: Satish Dhawan Space Centre Second Launch Pad

Location: Satish Dhawan Space Centre, India

...

Latest news about this satellite

There are no fresh news available about this satellite. Check back as we update our databases every day.


Newsletter sign-up

Weekly statistics, charts and insights to help you stay on top of the space industry.